EW6167 Weather Reports


time (UTC)temp
C
wind
direction
speed
KPH
gust
KPH
rain 1hr
cm
rain 24hr
cm
rain mn
cm
humidity
%
barometer
mb
20260508013010 16 314 16.1 0.0 0.00 0.00 0.00 38 1005.1
20260508012529 16 333 16.1 0.0 0.00 0.00 0.00 38 1005.1
20260508012046 16 334 16.1 0.0 0.00 0.00 0.00 36 1005.0
20260508011513 16 337 16.1 0.0 0.00 0.00 0.00 35 1004.9
20260508011031 16 344 16.1 0.0 0.00 0.00 0.00 34 1005.0
20260508010544 16 328 16.1 0.0 0.00 0.00 0.00 34 1005.0
20260508005522 16 349 17.7 0.0 0.00 0.00 0.00 33 1004.8
20260508005034 17 342 16.1 0.0 0.00 0.00 0.00 32 1004.8
20260508004610 17 348 16.1 0.0 0.00 0.00 0.00 34 1004.8
20260508004008 16 333 12.9 0.0 0.00 0.00 0.00 34 1004.9
20260508003525 16 303 8.0 0.0 0.00 0.00 0.00 37 1004.9
20260508003041 16 330 8.0 0.0 0.00 0.00 0.00 37 1004.9
20260508002603 16 330 11.3 0.0 0.00 0.00 0.00 35 1004.9
20260508002012 16 323 14.5 0.0 0.00 0.00 0.00 34 1004.8
20260508001527 16 339 16.1 0.0 0.00 0.00 0.00 34 1004.8
20260508001043 16 336 16.1 0.0 0.00 0.00 0.00 33 1004.8
20260508000603 16 327 16.1 0.0 0.00 0.00 0.00 33 1004.8
20260508000019 16 350 16.1 0.0 0.00 0.00 0.00 34 1004.8
20260507235537 16 337 17.7 0.0 0.00 0.00 0.00 33 1004.8
20260507235055 16 331 16.1 0.0 0.00 0.00 0.00 33 1004.9
20260507234506 17 335 16.1 0.0 0.00 0.00 0.00 32 1004.7
20260507234021 17 5 16.1 0.0 0.00 0.00 0.00 31 1004.6
20260507233545 16 347 19.3 0.0 0.00 0.00 0.00 33 1004.5
20260507233059 16 329 19.3 0.0 0.00 0.00 0.00 32 1004.7
20260507232510 17 335 17.7 0.0 0.00 0.00 0.00 33 1004.6
20260507232025 17 350 16.1 0.0 0.00 0.00 0.00 32 1004.5
20260507231546 17 355 16.1 0.0 0.00 0.00 0.00 33 1004.7
20260507231101 16 342 16.1 0.0 0.00 0.00 0.00 33 1004.8
20260507230516 16 340 17.7 0.0 0.00 0.00 0.00 32 1004.7
20260507230031 16 355 17.7 0.0 0.00 0.00 0.00 33 1004.7
20260507225549 16 345 17.7 0.0 0.00 0.00 0.00 32 1004.7
20260507225009 17 355 19.3 0.0 0.00 0.00 0.00 32 1004.6
20260507224522 16 341 19.3 0.0 0.00 0.00 0.00 30 1004.7
20260507224043 16 341 19.3 0.0 0.00 0.00 0.00 30 1004.5
20260507223557 16 355 19.3 0.0 0.00 0.00 0.00 30 1004.7
20260507223012 17 337 19.3 0.0 0.00 0.00 0.00 30 1004.6
20260507222533 17 331 19.3 0.0 0.00 0.00 0.00 29 1004.6
20260507222053 17 333 19.3 0.0 0.00 0.00 0.00 31 1004.7
20260507221513 16 9 17.7 0.0 0.00 0.00 0.00 30 1004.7
20260507221024 17 9 17.7 0.0 0.00 0.00 0.00 29 1004.9
20260507220541 17 338 16.1 0.0 0.00 0.00 0.00 28 1004.7
20260507220058 17 32 14.5 0.0 0.00 0.00 0.00 28 1004.9
20260507215512 17 26 16.1 0.0 0.00 0.00 0.00 27 1004.8
20260507215027 17 300 17.7 0.0 0.00 0.00 0.00 26 1004.8
20260507214608 17 298 17.7 0.0 0.00 0.00 0.00 25 1005.0
20260507214103 17 330 17.7 0.0 0.00 0.00 0.00 25 1005.0
20260507213520 17 314 19.3 0.0 0.00 0.00 0.00 25 1005.1
20260507213036 17 316 19.3 0.0 0.00 0.00 0.00 25 1005.2
20260507212559 17 341 19.3 0.0 0.00 0.00 0.00 26 1005.1
20260507212018 17 343 17.7 0.0 0.00 0.00 0.00 25 1005.2
20260507211534 17 351 14.5 0.0 0.00 0.00 0.00 28 1005.2
20260507211052 17 13 14.5 0.0 0.00 0.00 0.00 27 1005.3
20260507210503 17 5 16.1 0.0 0.00 0.00 0.00 28 1005.2
20260507210033 17 348 14.5 0.0 0.00 0.00 0.00 27 1005.2
20260507205536 17 9 12.9 0.0 0.00 0.00 0.00 29 1005.3
20260507205055 17 17 12.9 0.0 0.00 0.00 0.00 27 1005.2
20260507204511 17 346 17.7 0.0 0.00 0.00 0.00 26 1005.3
20260507204030 17 9 16.1 0.0 0.00 0.00 0.00 30 1005.5
20260507203547 17 355 14.5 0.0 0.00 0.00 0.00 29 1005.6
20260507203103 17 33 12.9 0.0 0.00 0.00 0.00 29 1005.5
20260507202515 17 355 11.3 0.0 0.00 0.00 0.00 29 1005.5
20260507202031 16 355 12.9 0.0 0.00 0.00 0.00 28 1005.6
20260507201550 16 283 12.9 0.0 0.00 0.00 0.00 28 1005.6
20260507201002 16 290 14.5 0.0 0.00 0.00 0.00 29 1005.8
20260507200519 17 307 12.9 0.0 0.00 0.00 0.00 28 1005.8
20260507200037 17 306 9.7 0.0 0.00 0.00 0.00 29 1005.7
20260507195549 17 325 8.0 0.0 0.00 0.00 0.00 29 1005.8
20260507195105 17 273 11.3 0.0 0.00 0.00 0.00 28 1005.7
20260507194518 16 304 12.9 0.0 0.00 0.00 0.00 28 1005.8
20260507194031 16 313 12.9 0.0 0.00 0.00 0.00 28 1005.8
20260507193545 16 308 12.9 0.0 0.00 0.00 0.00 29 1006.1
20260507193101 16 291 16.1 0.0 0.00 0.00 0.00 31 1006.2
20260507192508 16 292 12.9 0.0 0.00 0.00 0.00 30 1006.3
20260507192030 16 294 12.9 0.0 0.00 0.00 0.00 33 1006.3
20260507191547 16 339 17.7 0.0 0.00 0.00 0.00 31 1006.3
20260507191058 16 318 19.3 0.0 0.00 0.00 0.00 30 1006.3
20260507190514 16 307 19.3 0.0 0.00 0.00 0.00 34 1006.5
20260507190027 16 328 19.3 0.0 0.00 0.00 0.00 32 1006.4
20260507185546 16 284 19.3 0.0 0.00 0.00 0.00 32 1006.5
20260507185105 16 304 17.7 0.0 0.00 0.00 0.00 33 1006.6
20260507184517 16 268 19.3 0.0 0.00 0.00 0.00 32 1006.7
20260507184028 16 264 19.3 0.0 0.00 0.00 0.00 32 1006.8
20260507183549 16 292 19.3 0.0 0.00 0.00 0.00 34 1006.7
20260507183008 15 300 16.1 0.0 0.00 0.00 0.00 35 1006.8
20260507182533 15 279 16.1 0.0 0.00 0.00 0.00 35 1006.9
20260507182053 15 338 16.1 0.0 0.00 0.00 0.00 34 1006.8
20260507181503 15 323 14.5 0.0 0.00 0.00 0.00 35 1006.8
20260507181020 15 317 19.3 0.0 0.00 0.00 0.00 34 1007.1
20260507180536 15 297 19.3 0.0 0.00 0.00 0.00 34 1007.2
20260507180054 15 292 14.5 0.0 0.00 0.00 0.00 34 1007.1
20260507175508 15 273 14.5 0.0 0.00 0.00 0.00 35 1007.2
20260507175024 15 302 16.1 0.0 0.00 0.00 0.00 34 1007.2
20260507174550 15 288 16.1 0.0 0.00 0.00 0.00 36 1007.2
20260507174102 15 273 16.1 0.0 0.00 0.00 0.00 35 1007.2
20260507173518 15 276 16.1 0.0 0.00 0.00 0.00 35 1007.2
20260507173036 15 266 17.7 0.0 0.00 0.00 0.00 35 1007.2
20260507172547 15 296 16.1 0.0 0.00 0.00 0.00 35 1007.2
20260507172104 15 360 19.3 0.0 0.00 0.00 0.00 35 1007.2
20260507171515 15 314 20.9 0.0 0.00 0.00 0.00 35 1007.3
20260507171035 15 303 17.7 0.0 0.00 0.00 0.00 34 1007.2
20260507170554 15 304 17.7 0.0 0.00 0.00 0.00 38 1007.3
20260507170002 15 292 17.7 0.0 0.00 0.00 0.00 36 1007.5
20260507165517 15 302 16.1 0.0 0.00 0.00 0.00 35 1007.5
20260507165032 15 276 17.7 0.0 0.00 0.00 0.00 37 1007.4
20260507164608 15 283 19.3 0.0 0.00 0.00 0.00 38 1007.5
20260507164011 14 295 19.3 0.0 0.00 0.00 0.00 37 1007.6
20260507163530 14 265 16.1 0.0 0.00 0.00 0.00 39 1007.5
20260507163045 15 270 14.5 0.0 0.00 0.00 0.00 40 1007.7
20260507162605 15 269 14.5 0.0 0.00 0.00 0.00 39 1007.6
20260507162018 15 272 14.5 0.0 0.00 0.00 0.00 38 1007.7
20260507161539 14 283 12.9 0.0 0.00 0.00 0.00 39 1007.8
20260507161054 14 250 16.1 0.0 0.00 0.00 0.00 37 1007.8
20260507160509 15 298 17.7 0.0 0.00 0.00 0.00 36 1007.9
20260507160025 15 314 11.3 0.0 0.00 0.00 0.00 35 1007.8
20260507155535 15 309 6.4 0.0 0.00 0.00 0.00 39 1007.7
20260507155053 15 39 4.8 0.0 0.00 0.00 0.00 48 1007.8
20260507154513 14 120 4.8 0.0 0.00 0.00 0.00 44 1007.8
20260507154026 14 123 6.4 0.0 0.00 0.00 0.00 44 1007.9
20260507153542 13 105 9.7 0.0 0.00 0.00 0.00 46 1008.0
20260507153058 13 130 8.0 0.0 0.00 0.00 0.00 48 1008.0
20260507152510 13 157 9.7 0.0 0.00 0.00 0.00 48 1008.1
20260507152028 13 202 9.7 0.0 0.00 0.00 0.00 49 1008.4
20260507151543 13 170 9.7 0.0 0.00 0.00 0.00 49 1008.4
20260507151059 13 209 9.7 0.0 0.00 0.00 0.00 49 1008.4
20260507150510 13 148 11.3 0.0 0.00 0.00 0.00 49 1008.4
20260507150031 13 189 11.3 0.0 0.00 0.00 0.00 52 1008.5
20260507145548 12 167 9.7 0.0 0.00 0.00 0.00 52 1008.6
20260507145103 12 179 11.3 0.0 0.00 0.00 0.00 54 1008.8
20260507144518 12 199 12.9 0.0 0.00 0.00 0.00 54 1008.7
20260507144041 12 184 12.9 0.0 0.00 0.00 0.00 53 1008.7
20260507143558 12 183 12.9 0.0 0.00 0.00 0.00 55 1008.7
20260507143022 12 178 11.3 0.0 0.00 0.00 0.00 54 1008.7
20260507142537 11 174 9.7 0.0 0.00 0.00 0.00 57 1008.8
20260507142053 11 188 9.7 0.0 0.00 0.00 0.00 59 1008.8
20260507141503 11 177 9.7 0.0 0.00 0.00 0.00 60 1008.9
20260507141027 11 182 9.7 0.0 0.00 0.00 0.00 60 1008.9
20260507140542 10 180 9.7 0.0 0.00 0.00 0.00 61 1008.9
20260507135519 10 187 9.7 0.0 0.00 0.00 0.00 62 1008.8
20260507135038 10 179 9.7 0.0 0.00 0.00 0.00 64 1008.9
20260507134558 9 189 11.3 0.0 0.00 0.00 0.00 66 1009.0
20260507134004 8 190 12.9 0.0 0.00 0.00 0.00 66 1009.0
20260507133521 8 199 12.9 0.0 0.00 0.00 0.00 66 1008.9
20260507133039 8 211 11.3 0.0 0.00 0.00 0.00 66 1009.0
20260507132555 8 199 11.3 0.0 0.00 0.00 0.00 67 1009.0
20260507132010 8 212 9.7 0.0 0.00 0.00 0.00 66 1009.2
20260507131527 8 213 8.0 0.0 0.00 0.00 0.00 66 1009.1
20260507131043 8 208 8.0 0.0 0.00 0.00 0.00 67 1009.3
20260507130558 8 191 8.0 0.0 0.00 0.00 0.00 68 1009.3
20260507130024 7 202 8.0 0.0 0.00 0.00 0.00 69 1009.4
20260507125530 7 186 8.0 0.0 0.00 0.00 0.00 70 1009.4
20260507125044 7 180 6.4 0.0 0.00 0.00 0.00 71 1009.6
20260507124606 6 179 8.0 0.0 0.00 0.00 0.00 71 1009.4
20260507124010 6 179 8.0 0.0 0.00 0.00 0.00 71 1009.6
20260507123528 6 179 8.0 0.0 0.00 0.00 0.00 71 1009.7
20260507123048 6 179 8.0 0.0 0.00 0.00 0.00 72 1009.7
20260507122504 6 179 8.0 0.0 0.00 0.00 0.00 71 1009.8
20260507122023 6 179 8.0 0.0 0.00 0.00 0.00 71 1009.7
20260507121537 6 179 8.0 0.0 0.00 0.00 0.00 69 1009.7
20260507121054 6 179 8.0 0.0 0.00 0.00 0.00 67 1009.8
20260507120511 7 182 6.4 0.0 0.00 0.00 0.00 63 1009.7
20260507120022 8 209 6.4 0.0 0.00 0.00 0.00 59 1009.9
20260507115534 9 209 3.2 0.0 0.00 0.00 0.00 56 1009.9
20260507115049 10 209 3.2 0.0 0.00 0.00 0.00 53 1010.0
20260507114506 10 209 4.8 0.0 0.00 0.00 0.00 53 1010.0
20260507114026 11 209 3.2 0.0 0.00 0.00 0.00 52 1009.9
20260507113540 11 192 3.2 0.0 0.00 0.00 0.00 51 1009.7
20260507113101 11 192 3.2 0.0 0.00 0.00 0.00 51 1009.9
20260507112517 11 192 3.2 0.0 0.00 0.00 0.00 51 1010.0
20260507112033 11 63 3.2 0.0 0.00 0.00 0.00 52 1009.9
20260507111554 11 63 3.2 0.0 0.00 0.00 0.00 52 1010.0
20260507111007 11 63 4.8 0.0 0.00 0.00 0.00 52 1010.1
20260507110524 11 63 6.4 0.0 0.00 0.00 0.00 52 1010.0
20260507110045 11 355 4.8 0.0 0.00 0.00 0.00 52 1010.2
20260507105601 11 340 4.8 0.0 0.00 0.00 0.00 52 1010.2
20260507105013 10 300 4.8 0.0 0.00 0.00 0.00 53 1010.1
20260507104537 10 300 4.8 0.0 0.00 0.00 0.00 53 1010.2
20260507104053 11 300 4.8 0.0 0.00 0.00 0.00 52 1010.2
20260507103506 11 300 6.4 0.0 0.00 0.00 0.00 51 1010.0
20260507103030 11 288 9.7 0.0 0.00 0.00 0.00 51 1010.0
20260507102544 11 282 9.7 0.0 0.00 0.00 0.00 51 1010.0
20260507102104 11 309 9.7 0.0 0.00 0.00 0.00 51 1010.1
20260507101513 11 297 8.0 0.0 0.00 0.00 0.00 51 1010.1
20260507101029 11 306 6.4 0.0 0.00 0.00 0.00 51 1010.2
20260507100547 11 305 4.8 0.0 0.00 0.00 0.00 51 1010.1
20260507095512 11 314 1.6 0.0 0.00 0.00 0.00 51 1010.3
20260507095027 11 314 1.6 0.0 0.00 0.00 0.00 51 1010.3
20260507094546 11 355 1.6 0.0 0.00 0.00 0.00 51 1010.4
20260507094003 11 355 4.8 0.0 0.00 0.00 0.00 51 1010.6
20260507093522 11 355 4.8 0.0 0.00 0.00 0.00 51 1010.6
20260507093046 11 44 4.8 0.0 0.00 0.00 0.00 51 1010.6
20260507092554 11 44 4.8 0.0 0.00 0.00 0.00 51 1010.5
20260507092010 11 317 3.2 0.0 0.00 0.00 0.00 52 1010.6
20260507091529 10 82 3.2 0.0 0.00 0.00 0.00 53 1010.5
20260507091050 10 232 1.6 0.0 0.00 0.00 0.00 53 1010.5
20260507090604 11 233 3.2 0.0 0.00 0.00 0.00 52 1010.5
20260507090013 11 233 3.2 0.0 0.00 0.00 0.00 50 1010.3
20260507085530 11 231 3.2 0.0 0.00 0.00 0.00 49 1010.4
20260507085050 11 231 3.2 0.0 0.00 0.00 0.00 50 1010.3
20260507084502 11 233 1.6 0.0 0.00 0.00 0.00 49 1010.3
20260507084018 11 233 1.6 0.0 0.00 0.00 0.00 49 1010.4
20260507083538 11 233 1.6 0.0 0.00 0.00 0.00 49 1010.5
20260507083054 11 233 3.2 0.0 0.00 0.00 0.00 50 1010.5
20260507082505 11 185 3.2 0.0 0.00 0.00 0.00 50 1010.5
20260507082023 11 198 3.2 0.0 0.00 0.00 0.00 50 1010.6
20260507081535 11 225 4.8 0.0 0.00 0.00 0.00 50 1010.6
20260507081048 11 273 4.8 0.0 0.00 0.00 0.00 50 1010.7
20260507080608 11 360 4.8 0.0 0.00 0.00 0.00 50 1010.7
20260507080020 11 248 6.4 0.0 0.00 0.00 0.00 50 1010.8
20260507075536 11 244 6.4 0.0 0.00 0.00 0.00 49 1010.8
20260507075059 11 207 6.4 0.0 0.00 0.00 0.00 49 1010.8
20260507074507 11 212 4.8 0.0 0.00 0.00 0.00 49 1010.9
20260507074026 11 221 4.8 0.0 0.00 0.00 0.00 50 1010.9
20260507073539 11 221 6.4 0.0 0.00 0.00 0.00 50 1010.9
20260507073056 11 221 6.4 0.0 0.00 0.00 0.00 51 1010.9
20260507072513 11 221 6.4 0.0 0.00 0.00 0.00 52 1011.0
20260507072028 10 130 6.4 0.0 0.00 0.00 0.00 52 1011.0
20260507071601 10 150 8.0 0.0 0.00 0.00 0.00 52 1011.2
20260507071102 10 148 8.0 0.0 0.00 0.00 0.00 52 1011.2
20260507070514 10 127 9.7 0.0 0.00 0.00 0.00 51 1011.2
20260507070026 10 170 8.0 0.0 0.00 0.00 0.00 51 1011.4
20260507065548 10 157 8.0 0.0 0.00 0.00 0.00 51 1011.4
20260507065002 10 165 4.8 0.0 0.00 0.00 0.00 53 1011.4
20260507064519 10 194 3.2 0.0 0.00 0.00 0.00 52 1011.6
20260507064037 10 194 3.2 0.0 0.00 0.00 0.00 52 1011.5
20260507063556 10 138 3.2 0.0 0.00 0.00 0.00 52 1011.4
20260507063006 10 183 6.4 0.0 0.00 0.00 0.00 52 1011.6
20260507062528 9 182 8.0 0.0 0.00 0.00 0.00 54 1011.6
20260507062044 9 188 9.7 0.0 0.00 0.00 0.00 54 1011.7
20260507061505 9 140 9.7 0.0 0.00 0.00 0.00 54 1011.5
20260507061019 10 140 8.0 0.0 0.00 0.00 0.00 54 1011.5
20260507060532 10 134 4.8 0.0 0.00 0.00 0.00 51 1011.5
20260507060047 10 188 3.2 0.0 0.00 0.00 0.00 50 1011.5
20260507055603 10 218 4.8 0.0 0.00 0.00 0.00 50 1011.6
20260507055015 10 218 6.4 0.0 0.00 0.00 0.00 50 1011.7
20260507054531 11 227 6.4 0.0 0.00 0.00 0.00 49 1011.8
20260507054046 11 247 6.4 0.0 0.00 0.00 0.00 47 1011.8
20260507053501 11 229 8.0 0.0 0.00 0.00 0.00 47 1011.9
20260507053021 10 229 6.4 0.0 0.00 0.00 0.00 48 1011.8
20260507052538 10 97 4.8 0.0 0.00 0.00 0.00 48 1011.8
20260507052057 11 50 3.2 0.0 0.00 0.00 0.00 48 1011.8
20260507051519 10 50 1.6 0.0 0.00 0.00 0.00 48 1011.8
20260507051025 10 50 3.2 0.0 0.00 0.00 0.00 49 1011.8
20260507050543 10 50 3.2 0.0 0.00 0.00 0.00 49 1011.9
20260507050104 10 50 3.2 0.0 0.00 0.00 0.00 49 1011.9
20260507045511 10 50 6.4 0.0 0.00 0.00 0.00 49 1011.9
20260507045028 11 178 8.0 0.0 0.00 0.00 0.00 49 1012.2
20260507044549 11 195 9.7 0.0 0.00 0.00 0.00 48 1011.9
20260507044104 11 205 8.0 0.0 0.00 0.00 0.00 48 1012.0
20260507043513 11 204 6.4 0.0 0.00 0.00 0.00 48 1012.1
20260507043030 10 211 6.4 0.0 0.00 0.00 0.00 50 1012.1
20260507042545 10 211 6.4 0.0 0.00 0.00 0.00 51 1012.1
20260507042103 10 211 4.8 0.0 0.00 0.00 0.00 51 1012.1
20260507041510 11 215 4.8 0.0 0.00 0.00 0.00 51 1012.1
20260507041026 11 215 6.4 0.0 0.00 0.00 0.00 49 1012.2
20260507040544 11 215 8.0 0.0 0.00 0.00 0.00 49 1012.2
20260507040118 11 215 9.7 0.0 0.00 0.00 0.00 49 1012.2
20260507035512 12 215 9.7 0.0 0.00 0.00 0.00 47 1012.1
20260507035029 12 219 8.0 0.0 0.00 0.00 0.00 46 1012.1
20260507034547 11 315 6.4 0.0 0.00 0.00 0.00 46 1012.1
20260507034102 11 315 4.8 0.0 0.00 0.00 0.00 48 1012.1
20260507033513 11 315 4.8 0.0 0.00 0.00 0.00 52 1012.1
20260507033039 11 315 4.8 0.0 0.00 0.00 0.00 52 1012.1
20260507032547 11 315 4.8 0.0 0.00 0.00 0.00 51 1012.1
20260507032001 12 315 3.2 0.0 0.00 0.00 0.00 48 1012.0
20260507031521 12 315 4.8 0.0 0.00 0.00 0.00 46 1012.0
20260507031040 12 315 6.4 0.0 0.00 0.00 0.00 44 1012.0
20260507030552 12 315 6.4 0.0 0.00 0.00 0.00 45 1012.1
20260507030010 12 315 4.8 0.0 0.00 0.00 0.00 45 1012.1
20260507025529 12 315 4.8 0.0 0.00 0.00 0.00 46 1012.2
20260507025047 12 315 4.8 0.0 0.00 0.00 0.00 46 1012.1
20260507024606 12 320 4.8 0.0 0.00 0.00 0.00 44 1012.2
20260507024015 12 320 4.8 0.0 0.00 0.00 0.00 42 1012.5
20260507023531 13 320 3.2 0.0 0.00 0.00 0.00 42 1012.5
20260507023050 13 320 3.2 0.0 0.00 0.00 0.00 41 1012.4
20260507022604 14 320 3.2 0.0 0.00 0.00 0.00 39 1012.3
20260507022013 14 320 1.6 0.0 0.00 0.00 0.00 36 1012.4
20260507021527 14 320 1.6 0.0 0.00 0.00 0.00 35 1012.5
20260507021041 15 320 1.6 0.0 0.00 0.00 0.00 35 1012.5
20260507020604 15 320 3.2 0.0 0.00 0.00 0.00 34 1012.6
20260507020008 15 320 3.2 0.0 0.00 0.00 0.00 34 1012.6
20260507015524 15 320 3.2 0.0 0.00 0.00 0.00 34 1012.6
20260507015042 15 320 1.6 0.0 0.00 0.00 0.00 34 1012.6
20260507014605 15 320 1.6 0.0 0.00 0.00 0.00 33 1012.7
20260507014011 15 320 4.8 0.0 0.00 0.00 0.00 33 1012.6
20260507013522 15 320 6.4 0.0 0.00 0.00 0.00 33 1012.7